Location: Richmond
(37.5536°N, 77.4606°W)
Time: 01:42:10
(UTC-04:00)

ISS - Visible Passes

Search period start: 20 April 2014 00:00
Search period end: 30 April 2014 00:00
Orbit: 414 x 419 km, 51.6° (Epoch: 19 April)

Date Brightness Start Highest point End Pass type
(mag) Time Alt. Az. Time Alt. Az. Time Alt. Az.
20 Apr -2.2 21:29:53 10° NW 21:33:01 35° NNE 21:33:10 34° NE visible
21 Apr -1.5 20:41:40 10° NNW 20:44:24 23° NNE 20:46:40 13° ENE visible
21 Apr -0.9 22:18:04 10° WNW 22:19:34 23° WNW 22:19:34 23° WNW visible
22 Apr -3.4 21:29:25 10° NW 21:32:46 80° SW 21:33:04 71° SSE visible
23 Apr -2.9 20:40:53 10° NW 20:44:11 55° NE 20:46:35 17° ESE visible
23 Apr -0.3 22:18:50 10° W 22:19:29 12° WSW 22:19:29 12° WSW visible
24 Apr -1.5 21:29:19 10° WNW 21:32:06 24° SW 21:33:01 21° SSW visible
25 Apr -2.4 20:40:18 10° WNW 20:43:31 46° SW 20:46:35 11° SSE visible
27 Apr -0.6 20:40:27 10° W 20:42:26 15° SW 20:44:25 10° SSW visible
